Skip Page Navigation
NASA JPL Caltech
NASA Logo - Jet Propulsion Laboratory + View the NASA Portal
+ Center for Near-Earth Object Studies
JPL Home Earth Solar System Stars & Galaxies Technology
JPL Solar System Dynamics
BODIES ORBITS EPHEMERIDES TOOLS PHYSICAL DATA DISCOVERY FAQ SITE MAP

Significant website upgrade scheduled for September 27. More details available here.

JPL Small-Body Database Browser
Search: [ help ]  
639 Latona (A907 OA)
Classification: Main-belt Asteroid          SPK-ID: 2000639
Ephemeris | Orbit Diagram | Orbital Elements | Mission Design | Physical Parameters | Discovery Circumstances ]

[ hide orbit diagram ]

For accurate long-term ephemerides, please instead use our Horizons system.This orbit viewer was implemented using two-body methods, and hence should not be used for determining accurate long-term trajectories (over several years or decades) or planetary encounter circumstances.


Orbital Elements at Epoch 2459396.5 (2021-Jul-01.0) TDB
Reference: JPL 50 (heliocentric ecliptic J2000)
 Element Value Uncertainty (1-sigma)   Units 
e .1074830111737456 1.5127e-08  
a 3.015894911569678 1.1875e-08 au
q 2.691737445090592 4.9787e-08 au
i 8.555529400320063 9.3424e-07 deg
node 279.8266473063507 8.9622e-06 deg
peri 70.75564007749638 1.5956e-05 deg
M 231.5770701954846 1.6087e-05 deg
tp 2460078.937379210197
(2023-May-14.43737921)
8.7197e-05 TDB
period 1913.034197939881
5.24
1.1299e-05
3.093e-08
d
yr
n .1881827310707141 1.1115e-09 deg/d
Q 3.340052378048765 1.3152e-08 au
  Orbit Determination Parameters
   # obs. used (total)      3510  
   data-arc span      41656 days (114.05 yr)  
   first obs. used      1907-07-20  
   last obs. used      2021-08-06  
   planetary ephem.      DE441  
   SB-pert. ephem.      SB441-N16  
   condition code      0  
   norm. resid. RMS      .40342  
   source      ORB  
   producer      Otto Matic  
   solution date      2021-Aug-25 06:51:27  

Additional Information
 Earth MOID = 1.69969 au 
 Jupiter MOID = 2.07851 au 
 T_jup = 3.222 
[ show covariance matrix ]

Ephemeris | Orbit Diagram | Orbital Elements | Mission Design | Physical Parameters | Discovery Circumstances ]

Physical Parameter Table
Parameter Symbol Value Units Sigma Reference Notes
absolute magnitude H 8.30   n/a MPO636070 IRAS observations used: 15
diameter diameter 78.509 km 1.161 urn:nasa:pds:neowise_diameters_albedos::2.0[mainbelt] (http://adsabs.harvard.edu/abs/2014ApJ...791..121M)  
rotation period rot_per 6.193 h n/a LCDB (Rev. 2020-October); Warner et al., 2009 Published Reference List:
[Binzel, R.P. (1987) Icarus 72, 135-208.]
[Riccioli, D.; Blanco, C.; Cigna, M. (2001) Planet. Space Sci. 49, 657-671.]
[Warner, B.D. (2008) Minor Planet Bull. 35, 56-60.]
[Hanus, J.; Durech, J.; Oszkiewicz, D.A.; Behrend, R.; et al. (2016) Astron. Astrophys. 586, A108.]
geometric albedo albedo 0.123   0.018 urn:nasa:pds:neowise_diameters_albedos::2.0[mainbelt] (http://adsabs.harvard.edu/abs/2014ApJ...791..121M)  
B-V BV 0.836   0.021 EAR-A-5-DDR-UBV-MEAN-VALUES-V1.2 #obs=7; phase (min.=3.31, mean=9.42, max.=16.89) deg.
U-B UB 0.477   0.015 EAR-A-5-DDR-UBV-MEAN-VALUES-V1.2 #obs=6; phase (min.=5.44, mean=10.44, max.=16.89) deg.
Tholen spectral type spec_T S   n/a EAR-A-5-DDR-TAXONOMY-V4.0 used 7 color indices; used ground-based radiometric albedo

639 Latona (A907 OA)          Discovered 1907-Jul-19 by Lohnert, K. at Heidelberg
Reference: DISCOVERY.DBLast Updated: 2003-08-29

Alternate Designations
 A907 OA = A913 UB 
Ephemeris | Orbit Diagram | Orbital Elements | Mission Design | Physical Parameters | Discovery Circumstances ]
ABOUT SSD CREDITS/AWARDS PRIVACY/COPYRIGHT GLOSSARY LINKS
FirstGov 2021-Sep-21 07:42 UT
(server date/time)  
NASA Home Page
Site Manager:   Ryan S. Park
Webmaster  Alan B. Chamberlin